TimeEDT,TemperatureF,Dew PointF,Humidity,Sea Level PressureIn,VisibilityMPH,Wind Direction,Wind SpeedMPH,Gust SpeedMPH,PrecipitationIn,Events,Conditions,WindDirDegrees,DateUTC
12:32 AM,75.2,71.6,89,30.01,6.0,SSW,13.8,21.9,0.02,Rain-Thunderstorm,Thunderstorms and Rain,210,2013-06-11 04:32:00
12:48 AM,73.4,73.4,100,30.00,10.0,SW,3.5,-,0.02,Rain,Rain,220,2013-06-11 04:48:00
12:56 AM,73.9,73.0,97,30.01,10.0,Calm,Calm,-,0.02,Rain,Rain,0,2013-06-11 04:56:00
1:56 AM,75.9,75.0,97,29.98,8.0,SSW,6.9,-,0.03,Rain,Rain,200,2013-06-11 05:56:00
2:56 AM,73.9,71.1,91,30.00,10.0,SW,11.5,18.4,0.00,Rain,Rain,220,2013-06-11 06:56:00
3:56 AM,72.0,70.0,93,29.98,10.0,SW,5.8,-,0.00,Rain,Rain,220,2013-06-11 07:56:00
4:26 AM,71.6,69.8,94,29.97,10.0,SW,3.5,-,0.00,Rain,Rain,230,2013-06-11 08:26:00
4:34 AM,71.6,69.8,94,29.97,10.0,SW,3.5,-,0.00,Rain,Rain,220,2013-06-11 08:34:00
4:56 AM,72.0,70.0,93,29.98,10.0,SW,5.8,-,0.00,Rain,Rain,230,2013-06-11 08:56:00
5:03 AM,71.6,69.8,94,29.97,10.0,Variable,4.6,-,0.00,Rain,Rain,0,2013-06-11 09:03:00
5:21 AM,71.6,69.8,94,29.98,10.0,SW,5.8,-,0.00,Rain,Rain,230,2013-06-11 09:21:00
5:25 AM,71.6,69.8,94,29.98,10.0,WSW,5.8,-,0.00,Rain,Rain,240,2013-06-11 09:25:00
5:56 AM,72.0,70.0,93,30.00,9.0,WSW,5.8,-,0.00,,Overcast,240,2013-06-11 09:56:00
6:32 AM,71.6,69.8,94,29.99,8.0,WSW,5.8,-,N/A,,Mostly Cloudy,240,2013-06-11 10:32:00
6:42 AM,71.6,69.8,94,29.99,8.0,SW,8.1,-,N/A,,Partly Cloudy,230,2013-06-11 10:42:00
6:56 AM,72.0,70.0,93,30.00,8.0,SW,8.1,-,N/A,,Mostly Cloudy,230,2013-06-11 10:56:00
7:11 AM,71.6,69.8,94,30.00,9.0,SW,9.2,-,N/A,,Mostly Cloudy,230,2013-06-11 11:11:00
7:56 AM,73.0,71.1,93,30.01,9.0,West,11.5,-,N/A,,Overcast,270,2013-06-11 11:56:00
8:35 AM,73.4,69.8,88,30.00,8.0,SW,6.9,-,N/A,,Mostly Cloudy,230,2013-06-11 12:35:00
8:54 AM,75.2,69.8,83,30.00,9.0,SW,10.4,-,N/A,,Partly Cloudy,220,2013-06-11 12:54:00
8:56 AM,75.0,70.0,84,30.01,9.0,WSW,11.5,18.4,N/A,,Mostly Cloudy,240,2013-06-11 12:56:00
9:47 AM,75.2,69.8,83,30.00,9.0,SW,15.0,18.4,N/A,,Mostly Cloudy,230,2013-06-11 13:47:00
9:56 AM,75.0,69.1,82,30.00,9.0,SW,11.5,-,N/A,,Mostly Cloudy,230,2013-06-11 13:56:00
10:56 AM,78.1,71.1,79,29.98,9.0,SW,9.2,-,N/A,,Mostly Cloudy,230,2013-06-11 14:56:00
11:56 AM,79.0,71.1,77,29.98,9.0,WSW,12.7,-,N/A,,Overcast,240,2013-06-11 15:56:00
12:56 PM,81.0,71.1,72,29.97,9.0,West,10.4,18.4,N/A,,Overcast,260,2013-06-11 16:56:00
1:07 PM,80.6,71.6,74,29.96,9.0,WSW,10.4,19.6,N/A,,Overcast,250,2013-06-11 17:07:00
1:56 PM,82.9,71.1,67,29.95,10.0,WSW,15.0,20.7,N/A,,Mostly Cloudy,240,2013-06-11 17:56:00
2:56 PM,84.0,69.1,61,29.93,10.0,West,12.7,-,N/A,,Scattered Clouds,260,2013-06-11 18:56:00
3:56 PM,84.9,69.1,59,29.92,10.0,WSW,11.5,-,N/A,,Scattered Clouds,250,2013-06-11 19:56:00
4:56 PM,84.9,69.1,59,29.91,10.0,West,11.5,-,N/A,,Mostly Cloudy,260,2013-06-11 20:56:00
5:56 PM,84.9,70.0,61,29.91,10.0,West,8.1,-,N/A,,Partly Cloudy,260,2013-06-11 21:56:00
6:56 PM,82.9,71.1,67,29.91,10.0,SW,5.8,-,N/A,,Partly Cloudy,230,2013-06-11 22:56:00
7:56 PM,80.1,72.0,76,29.93,10.0,SW,5.8,-,N/A,,Clear,230,2013-06-11 23:56:00
8:56 PM,78.1,72.0,81,29.94,10.0,SW,4.6,-,N/A,,Partly Cloudy,230,2013-06-12 00:56:00
9:56 PM,75.9,72.0,87,29.96,9.0,SW,3.5,-,N/A,,Clear,220,2013-06-12 01:56:00
10:56 PM,75.0,72.0,90,29.96,8.0,SW,5.8,-,N/A,,Clear,220,2013-06-12 02:56:00
11:56 PM,73.9,73.0,97,29.98,6.0,WSW,4.6,-,N/A,,Clear,240,2013-06-12 03:56:00